Weather History for Cape Girardeau, MO

Change the Weather History Date:

Sunday, October 16, 2011

  Actual Average Record
Temperature  
Mean Temperature 68 °F 58 °F  
Max Temperature 87 °F 71 °F 87 °F (2011)
Min Temperature 49 °F 45 °F 32 °F (1991)
Degree Days  
Heating Degree Days 0 8  
Month to date heating degree days 56 103  
Since 1 July heating degree days 109 152  
Cooling Degree Days 3 1  
Month to date cooling degree days 18 23  
Year to date cooling degree days 1697 1445  
Growing Degree Days 18 (Base 50)    
Moisture  
Dew Point 45 °F    
Average Humidity 47    
Maximum Humidity 66    
Minimum Humidity 27    
Precipitation  
Precipitation 0.00 in 0.12 in 2.82 in (2006)
Month to date precipitation 0.47 1.87  
Year to date precipitation 57.33 36.20  
Sea Level Pressure  
Sea Level Pressure 29.94 in    
Wind  
Wind Speed 9 mph (SW)    
Max Wind Speed 21 mph    
Max Gust Speed 30 mph    
Visibility 10 miles    
Events      
T = Trace of Precipitation, MM = Missing Value Source: NWS Daily Summary

Daily Weather History Graph

Daily Weather History Graph

Search for Another Location

Airport:

Trip Planner

Search our weather history database for the weather conditions in past years. The results will help you decide how hot, cold, wet, or windy it might be!

Date:

Astronomy

Oct. 16, 2011 Rise Set
Actual Time 7:06 AM CDT 6:20 PM CDT
Civil Twilight 6:40 AM CDT 6:46 PM CDT
Nautical Twilight 6:10 AM CDT 7:16 PM CDT
Astronomical Twilight 5:40 AM CDT 7:46 PM CDT
Moon 9:11 PM CDT (10/16) 11:18 AM CDT (10/16)
Length of Visible Light 12h 05m
Length of Day
11h 13m
Waning Gibbous, 82% of the Moon is Illuminated
Oct 16
Waning Gibbous
Oct 19
Last Quarter
Oct 26
New
Nov 2
First Quarter
Nov 10
Full

Hourly Weather History & Observations

Time (CDT) Temp. Dew Point Humidity Pressure Visibility Wind Dir Wind Speed Gust Speed Precip Events Conditions
12:53 AM 61.0 °F 36.0 °F 39% 30.02 in 10.0 mi SSW 8.1 mph - N/A   Clear
1:53 AM 60.1 °F 37.0 °F 42% 30.01 in 10.0 mi Calm Calm - N/A   Clear
2:53 AM 50.0 °F 39.0 °F 66% 30.01 in 10.0 mi Calm Calm - N/A   Clear
3:53 AM 55.0 °F 39.0 °F 55% 30.00 in 10.0 mi Calm Calm - N/A   Clear
4:53 AM 55.0 °F 39.9 °F 57% 30.00 in 10.0 mi SSW 4.6 mph - N/A   Clear
5:53 AM 55.4 °F 41.0 °F 58% 29.99 in 10.0 mi SW 4.6 mph - N/A   Clear
6:53 AM 54.0 °F 41.0 °F 62% 29.99 in 10.0 mi Calm Calm - N/A   Clear
7:53 AM 55.9 °F 42.1 °F 60% 30.00 in 10.0 mi Variable 3.5 mph - N/A   Clear
8:53 AM 61.0 °F 45.0 °F 56% 30.01 in 10.0 mi South 8.1 mph - N/A   Clear
9:53 AM 68.0 °F 46.9 °F 47% 30.00 in 10.0 mi SW 10.4 mph - N/A   Clear
10:53 AM 75.0 °F 48.0 °F 38% 29.98 in 10.0 mi SW 11.5 mph 20.7 mph N/A   Clear
11:53 AM 79.0 °F 46.9 °F 32% 29.95 in 10.0 mi WSW 15.0 mph 23.0 mph N/A   Clear
12:53 PM 82.9 °F 48.0 °F 29% 29.91 in 10.0 mi WSW 13.8 mph 21.9 mph N/A   Clear
1:53 PM 84.9 °F 48.0 °F 28% 29.86 in 10.0 mi SW 15.0 mph 25.3 mph N/A   Clear
2:53 PM 86.0 °F 48.9 °F 28% 29.84 in 10.0 mi WSW 12.7 mph 25.3 mph N/A   Clear
3:53 PM 86.0 °F 48.2 °F 27% 29.85 in 10.0 mi WSW 18.4 mph 24.2 mph N/A   Clear
4:53 PM 84.9 °F 51.1 °F 31% 29.83 in 10.0 mi SW 11.5 mph 23.0 mph N/A   Clear
5:53 PM 82.0 °F 50.0 °F 33% 29.82 in 10.0 mi SSW 13.8 mph - N/A   Clear
6:53 PM 78.8 °F 50.0 °F 36% 29.84 in 10.0 mi SW 11.5 mph - N/A   Clear
7:53 PM 75.9 °F 48.9 °F 38% 29.84 in 10.0 mi SW 11.5 mph - N/A   Clear
8:53 PM 70.0 °F 50.0 °F 49% 29.90 in 10.0 mi North 13.8 mph - N/A   Clear
9:53 PM 66.0 °F 46.0 °F 48% 29.94 in 10.0 mi North 8.1 mph - N/A   Clear
10:53 PM 64.0 °F 43.0 °F 46% 29.95 in 10.0 mi NNE 11.5 mph 19.6 mph N/A   Clear
11:53 PM 61.0 °F 43.0 °F 52% 29.96 in 10.0 mi NNE 6.9 mph - N/A   Clear